Regional Weather Roundup
Issued by NWS

Home | Current Version | Previous Version | Graphics & Text | Print | Product List | Glossary On
Versions: 1 2 3 4 5 6 7 8 9 10 11 12 13 14 15 16 17 18 19 20 21 22 23 24 25 26 27 28 29 30 31 32 33 34 35 36 37 38 39 40 41 42 43 44 45 46 47 48 49 50
000
ASUS43 KLMK 241502
RWRKY
KENTUCKY REGIONAL WEATHER ROUNDUP
NATIONAL WEATHER SERVICE LOUISVILLE KY
1100 AM EDT FRI OCT 24 2014

NOTE "FAIR" INDICATES FEW OR NO CLOUDS BELOW 12,000 FEET
WITH NO SIGNIFICANT WEATHER AND/OR OBSTRUCTIONS TO VISIBILITY.

KYZ001>023-026-027-061>063-070>075-241600-
WESTERN AND SOUTH CENTRAL KENTUCKY

CITY           SKY/WX    TMP DP  RH WIND       PRES   REMARKS
PADUCAH        CLOUDY    55  49  80 W6        30.14R
HENDERSON      CLOUDY   N/A N/A N/A CALM      30.13S
OWENSBORO      CLOUDY    53  47  80 VRB3      30.15R
HOPKINSVILLE   SUNNY     58  48  68 VRB1      30.14S
BOWLING GREEN  MOSUNNY   57  47  69 CALM      30.14F
GLASGOW        NOT AVBL
$$

KYZ024-025-028>034-038-045-046-053-241600-
NORTH CENTRAL KENTUCKY

CITY           SKY/WX    TMP DP  RH WIND       PRES   REMARKS
LOUISVILLE/SDF PTSUNNY   50  44  80 SE6       30.14F FOG
LOUISVILLE/LOU MOSUNNY   52  45  77 SE3       30.14F
FORT KNOX      CLOUDY    52  45  76 S2        30.12F
$$

KYZ035>037-039>044-047>052-055>060-089>105-241600-
NORTHEAST KENTUCKY

CITY           SKY/WX    TMP DP  RH WIND       PRES   REMARKS
LEXINGTON      MOSUNNY   54  48  80 CALM      30.14S HAZE
COVINGTON      MOSUNNY   57  43  59 SW5       30.13S
FRANKFORT      MOSUNNY   49  44  83 CALM      30.14S
$$

KYZ054-064>069-076>088-106>120-241600-
SOUTHEAST KENTUCKY

CITY           SKY/WX    TMP DP  RH WIND       PRES   REMARKS
JACKSON        CLOUDY    49  44  83 CALM      30.14S
LONDON         CLOUDY    52  45  77 CALM      30.13S
SOMERSET       MOSUNNY   52  43  71 CALM      30.15R
MIDDLESBORO    CLOUDY    46  43  90 CALM      30.15R
MONTICELLO     SUNNY     56  46  69 CALM      30.15S
$$




USA.gov is the U.S. government's official web portal to all federal, state and local government web resources and services.